CW7174 Woodbury NY US current weather conditions

sailwx.info

Wind from 292 at 0 knots gusting 6

Air temperature 2.8° C
Dewpoint -2.5° C

Last reported at 2020-Jan-28 23:07 UTC.
Time now 2020-Jan-29 00:00 UTC

Location: N 40°49' W 073°27'.
View on Google Maps.

See reports from other nearby stations

  
Tides and Currents Weather Stations Pressure Air Temp Water Temp Dewpoint Dewpoint Depression Visibility Wind Speed Wind Dir Waves Ship Positions
date/time (UTC)wind fromknots sea level pressurealtimeterstation pressurevisibilityair tempwater tempwave heightnotes
2020-Jan-28 23:07 292 0 gusting 6 2.8
2020-Jan-28 23:02 270 1 gusting 6 2.8
2020-Jan-28 22:57 270 0 gusting 5 2.8
2020-Jan-28 22:52 248 0 gusting 4 2.8
2020-Jan-28 22:46 022 0 gusting 4 2.8
2020-Jan-28 22:41 022 1 gusting 4 2.8
2020-Jan-28 22:36 270 1 gusting 5 2.8
2020-Jan-28 22:31 270 1 gusting 5 3.3
2020-Jan-28 22:26 292 3.3
2020-Jan-28 22:21 202 1 gusting 5 3.3
2020-Jan-28 22:16 338 3 gusting 5 3.3
2020-Jan-28 22:11 3.3
2020-Jan-28 22:06 338 2 gusting 5 3.3
2020-Jan-28 22:01 292 2 gusting 4 3.3
2020-Jan-28 21:55 292 0 gusting 4 3.3
2020-Jan-28 21:50 248 0 gusting 6 3.3
2020-Jan-28 21:45 022 2 gusting 6 3.3
2020-Jan-28 21:40 315 3.3
2020-Jan-28 21:35 202 1 gusting 5 3.3
2020-Jan-28 21:30 068 1 gusting 5 3.3
2020-Jan-28 21:25 158 3.3
2020-Jan-28 21:19 3.3
2020-Jan-28 21:14 225 1 gusting 6 3.9
2020-Jan-28 21:09 270 2 gusting 6 3.9
2020-Jan-28 21:03 248 1 gusting 4 3.9
2020-Jan-28 20:58 135 1 gusting 6 3.9
2020-Jan-28 20:53 068 2 gusting 6 3.9
2020-Jan-28 20:48 338 2 gusting 5 3.9
2020-Jan-28 20:43 270 1 gusting 3 4.4
2020-Jan-28 20:38 225 1 gusting 3 4.4
2020-Jan-28 20:32 4.4
2020-Jan-28 20:27 338 3 gusting 6 4.4
2020-Jan-28 20:22 315 3 gusting 6 4.4
2020-Jan-28 20:17 315 2 gusting 4 3.9
2020-Jan-28 20:12 315 1 gusting 9 3.9
2020-Jan-28 20:06 270 5 gusting 9 3.9
2020-Jan-28 20:01 022 1 gusting 6 3.9
2020-Jan-28 19:56 315 4 gusting 7 3.9
2020-Jan-28 19:51 315 2 gusting 8 3.9
2020-Jan-28 19:46 270 3 gusting 8 3.9
2020-Jan-28 19:41 338 4 gusting 7 3.9
2020-Jan-28 19:36 315 3 gusting 5 4.4
2020-Jan-28 19:30 225 0 gusting 4 4.4
2020-Jan-28 19:25 315 2 gusting 7 4.4
2020-Jan-28 19:20 270 3 gusting 7 4.4
2020-Jan-28 19:15 270 1 gusting 6 4.4
2020-Jan-28 19:10 315 3 gusting 6 4.4
2020-Jan-28 19:05 315 3 gusting 6 4.4
2020-Jan-28 19:00 338 4 gusting 6 4.4
2020-Jan-28 18:55 315 2 gusting 6 4.4
2020-Jan-28 18:50 4.4
2020-Jan-28 18:45 270 2 gusting 5 4.4
2020-Jan-28 18:39 270 1 gusting 7 4.4
2020-Jan-28 18:34 270 5 gusting 7 5.0
2020-Jan-28 18:29 338 2 gusting 7 5.0
2020-Jan-28 18:24 270 3 gusting 7 5.0
2020-Jan-28 18:19 315 2 gusting 5 5.0
2020-Jan-28 18:14 270 2 gusting 6 5.0
2020-Jan-28 18:09 045 1 gusting 7 5.0
2020-Jan-28 18:03 022 3 gusting 7 5.0
2020-Jan-28 17:58 5.0
2020-Jan-28 17:53 270 0 gusting 5 5.0
2020-Jan-28 17:48 338 2 gusting 6 4.4
2020-Jan-28 17:43 315 4 gusting 6 5.0
2020-Jan-28 17:38 338 1 gusting 5 5.0
2020-Jan-28 17:32 338 2 gusting 6 5.6
2020-Jan-28 17:27 5.0
2020-Jan-28 17:22 292 0 gusting 3 5.6
2020-Jan-28 17:17 022 1 gusting 8 5.0
2020-Jan-28 17:12 338 4 gusting 8 5.0
2020-Jan-28 17:06 338 2 gusting 6 5.0
2020-Jan-28 17:01 270 3 gusting 6 5.0
2020-Jan-28 16:56 068 1 gusting 5 5.0
2020-Jan-28 16:51 270 2 gusting 7 5.0
2020-Jan-28 16:46 022 2 gusting 7 5.0
2020-Jan-28 16:41 338 2 gusting 6 5.6
2020-Jan-28 16:36 270 2 gusting 6 5.6
2020-Jan-28 16:31 315 2 gusting 6 5.6
2020-Jan-28 16:26 022 2 gusting 6 5.6
2020-Jan-28 16:21 270 3 gusting 6 5.6
2020-Jan-28 16:15 315 3 gusting 5 6.1
2020-Jan-28 16:10 292 2 gusting 6 5.6
2020-Jan-28 16:05 5.6
2020-Jan-28 16:00 338 4 gusting 9 5.0
2020-Jan-28 15:55 270 4 gusting 9 4.4
2020-Jan-28 15:50 338 5 gusting 9 5.0
2020-Jan-28 15:45 315 3 gusting 7 4.4
2020-Jan-28 15:39 292 3 gusting 6 5.0
2020-Jan-28 15:34 315 2 gusting 5 5.0
2020-Jan-28 15:29 022 2 gusting 6 5.0
2020-Jan-28 15:24 225 3 gusting 6 4.4
2020-Jan-28 15:19 270 2 gusting 4 4.4
2020-Jan-28 15:14 292 1 gusting 4 4.4
2020-Jan-28 15:09 292 0 gusting 9 4.4
2020-Jan-28 15:04 248 3 gusting 9 4.4
2020-Jan-28 14:59 338 1 gusting 7 4.4
2020-Jan-28 14:53 315 3 gusting 7 4.4
2020-Jan-28 14:48 045 3 gusting 8 3.9
2020-Jan-28 14:43 248 4 gusting 8 3.9
2020-Jan-28 14:38 225 0 gusting 6 3.9
2020-Jan-28 14:33 112 1 gusting 4 3.9
2020-Jan-28 14:28 338 1 gusting 3 3.3
2020-Jan-28 14:23 112 1 gusting 6 3.3
2020-Jan-28 14:18 180 1 gusting 9 3.3
2020-Jan-28 14:12 338 3 gusting 9 3.3
2020-Jan-28 14:07 315 1 gusting 7 3.3
2020-Jan-28 14:02 338 3 gusting 7 2.8
2020-Jan-28 13:57 248 0 gusting 4 3.3
2020-Jan-28 13:52 270 1 gusting 4 2.8
2020-Jan-28 13:47 202 2.8
2020-Jan-28 13:41 022 3.3
2020-Jan-28 13:36 270 1 gusting 6 3.3
2020-Jan-28 13:31 022 1 gusting 6 2.8
2020-Jan-28 13:26 225 0 gusting 3 2.8
2020-Jan-28 13:21 292 0 gusting 3 2.8
2020-Jan-28 13:16 315 0 gusting 4 2.2
2020-Jan-28 13:11 045 1 gusting 4 2.2
2020-Jan-28 13:05 022 1 gusting 3 2.2
2020-Jan-28 13:00 225 1.7
2020-Jan-28 12:55 270 0 gusting 4 1.7
2020-Jan-28 12:50 270 1.7
2020-Jan-28 12:45 315 1.7
2020-Jan-28 12:40 315 1.7
2020-Jan-28 12:35 158 0 gusting 4 1.7
2020-Jan-28 12:30 202 0 gusting 4 1.7
2020-Jan-28 12:25 248 0 gusting 3 1.7
2020-Jan-28 12:20 292 1 gusting 4 1.7
2020-Jan-28 12:14 022 0 gusting 4 1.7
2020-Jan-28 12:09 022 0 gusting 3 1.7
2020-Jan-28 12:04 292 1.7
2020-Jan-28 11:59 315 1.7
2020-Jan-28 11:54 270 0 gusting 3 1.7
2020-Jan-28 11:49 315 0 gusting 3 1.7
2020-Jan-28 11:43 270 1.7
2020-Jan-28 11:38 045 1.7
2020-Jan-28 11:33 292 1.7
2020-Jan-28 11:28 270 1.7
2020-Jan-28 11:23 202 0 gusting 4 1.7
2020-Jan-28 11:17 315 1 gusting 4 1.7
2020-Jan-28 11:12 022 0 gusting 4 1.7
2020-Jan-28 11:07 045 0 gusting 4 1.7
2020-Jan-28 11:02 135 1.7
2020-Jan-28 10:57 270 0 gusting 5 1.7
2020-Jan-28 10:52 315 1.7
2020-Jan-28 10:47 225 1.7
2020-Jan-28 10:42 292 0 gusting 6 1.7
2020-Jan-28 10:37 045 1.7
2020-Jan-28 10:31 1.7
2020-Jan-28 10:26 270 0 gusting 4 1.7
2020-Jan-28 10:21 338 1.7
2020-Jan-28 10:16 292 0 gusting 3 1.7
2020-Jan-28 10:11 292 1.7
2020-Jan-28 10:06 315 1.7
2020-Jan-28 10:01 270 1 gusting 4 1.7
2020-Jan-28 09:56 338 1.7
2020-Jan-28 09:50 292 0 gusting 3 1.7
2020-Jan-28 09:45 292 0 gusting 3 1.7
2020-Jan-28 09:40 248 1 gusting 6 1.7
2020-Jan-28 09:35 270 2 gusting 6 1.7
2020-Jan-28 09:30 292 1.7
2020-Jan-28 09:25 270 1.7
2020-Jan-28 09:20 112 1.7
2020-Jan-28 09:14 315 0 gusting 4 1.7
2020-Jan-28 09:09 022 1 gusting 4 2.2
2020-Jan-28 09:04 338 0 gusting 3 2.2
2020-Jan-28 08:59 292 1 gusting 5 2.2
2020-Jan-28 08:54 315 0 gusting 2 2.2
2020-Jan-28 08:48 270 2.2
2020-Jan-28 08:43 292 0 gusting 2 2.2
2020-Jan-28 08:38 022 0 gusting 2 2.2
2020-Jan-28 08:33 270 0 gusting 3 2.2
2020-Jan-28 08:28 338 1 gusting 4 2.2
2020-Jan-28 08:23 225 2.2
2020-Jan-28 08:18 270 1 gusting 6 2.2
2020-Jan-28 08:13 270 0 gusting 3 2.2
2020-Jan-28 08:07 2.2
2020-Jan-28 08:02 045 1 gusting 2 2.2
2020-Jan-28 07:57 270 0 gusting 2 2.2
2020-Jan-28 07:52 270 2.2
2020-Jan-28 07:46 315 2.2
2020-Jan-28 07:41 270 0 gusting 2 2.2
2020-Jan-28 07:36 270 2.2
2020-Jan-28 07:30 270 2.2
2020-Jan-28 07:25 338 2.2
2020-Jan-28 07:20 338 2.2
2020-Jan-28 07:15 270 2.2
2020-Jan-28 07:10 045 2.2
2020-Jan-28 07:04 292 2.2
2020-Jan-28 06:59 022 2.2
2020-Jan-28 06:54 2.2
2020-Jan-28 06:49 292 0 gusting 3 2.2
2020-Jan-28 06:43 338 2.2
2020-Jan-28 06:38 270 2.8
2020-Jan-28 06:33 315 2.8
2020-Jan-28 06:28 338 0 gusting 4 2.8
2020-Jan-28 06:23 248 2.8
2020-Jan-28 06:18 292 2.8
2020-Jan-28 06:12 270 0 gusting 4 2.8
2020-Jan-28 06:07 202 2.8
2020-Jan-28 06:02 270 0 gusting 4 2.8
2020-Jan-28 05:57 315 1 gusting 4 2.8
2020-Jan-28 05:51 270 0 gusting 4 2.8
2020-Jan-28 05:46 068 2.8
2020-Jan-28 05:41 270 2.8
2020-Jan-28 05:36 292 2.8
2020-Jan-28 05:31 248 2.8
2020-Jan-28 05:26 270 2.8
2020-Jan-28 05:21 270 2.8
2020-Jan-28 05:16 225 0 gusting 2 2.8
2020-Jan-28 05:10 270 2.8
2020-Jan-28 05:05 315 1 gusting 3 2.8
2020-Jan-28 05:00 292 2.8
2020-Jan-28 04:54 315 3.3
2020-Jan-28 04:49 270 1 gusting 3 3.3
2020-Jan-28 04:44 158 3.3
2020-Jan-28 04:39 180 2.8
2020-Jan-28 04:34 270 2.8
2020-Jan-28 04:29 158 2.8
2020-Jan-28 04:24 248 2.8
2020-Jan-28 04:19 2.8
2020-Jan-28 04:13 270 2.8
2020-Jan-28 04:08 3.3
2020-Jan-28 04:03 248 3.3
2020-Jan-28 03:58 292 3.3
2020-Jan-28 03:52 248 3.3
2020-Jan-28 03:47 315 3.3
2020-Jan-28 03:42 315 3.3
2020-Jan-28 03:36 270 3.3
2020-Jan-28 03:31 338 3.3
2020-Jan-28 03:26 225 3.3
2020-Jan-28 03:21 270 3.3
2020-Jan-28 03:16 248 3.3
2020-Jan-28 03:10 270 3.3
2020-Jan-28 03:05 338 0 gusting 3 3.3
2020-Jan-28 03:00 068 3.3
2020-Jan-28 02:55 3.3
2020-Jan-28 02:49 315 3.3
2020-Jan-28 02:44 248 3.3
2020-Jan-28 02:39 270 3.3
2020-Jan-28 02:34 180 0 gusting 4 3.3
2020-Jan-28 02:28 292 0 gusting 4 3.3
2020-Jan-28 02:23 022 0 gusting 4 3.3
2020-Jan-28 02:18 225 0 gusting 5 3.3
2020-Jan-28 02:13 315 1 gusting 5 3.3
2020-Jan-28 02:08 202 3.3
2020-Jan-28 02:03 225 3.3
2020-Jan-28 01:58 315 3.3
2020-Jan-28 01:53 270 0 gusting 2 3.3
2020-Jan-28 01:48 112 3.3
2020-Jan-28 01:42 315 3.3
2020-Jan-28 01:37 225 3.3
2020-Jan-28 01:32 202 3.3
2020-Jan-28 01:27 045 3.9
2020-Jan-28 01:21 225 3.9
2020-Jan-28 01:16 315 3.9
2020-Jan-28 01:11 225 3.9
2020-Jan-28 01:06 315 3.9
2020-Jan-28 01:01 022 3.9
2020-Jan-28 00:56 112 3.9
2020-Jan-28 00:51 180 0 gusting 2 3.9
2020-Jan-28 00:45 270 3.9
2020-Jan-28 00:40 292 0 gusting 4 3.9
2020-Jan-28 00:35 158 3.9
2020-Jan-28 00:30 180 0 gusting 3 3.9
2020-Jan-28 00:25 022 1 gusting 4 3.9
2020-Jan-28 00:20 248 0 gusting 6 3.9
2020-Jan-28 00:15 315 0 gusting 6 3.9
2020-Jan-28 00:09 225 3.9
2020-Jan-28 00:04 270 3.3
2020-Jan-27 23:59 248 0 gusting 3 3.3
2020-Jan-27 23:54 315 3.3
2020-Jan-27 23:49 270 3.3
2020-Jan-27 23:44 202 3.3
2020-Jan-27 23:39 112 3.3
2020-Jan-27 23:34 315 3.3
2020-Jan-27 23:28 090 3.9
2020-Jan-27 23:23 315 3.9
2020-Jan-27 23:18 315 3.9
2020-Jan-27 23:13 225 0 gusting 2 3.9
2020-Jan-27 23:07 315 3.9
2020-Jan-27 23:02 135 3.9
2020-Jan-27 22:57 225 0 gusting 3 4.4
2020-Jan-27 22:52 270 4.4
2020-Jan-27 22:47 112 4.4
2020-Jan-27 22:41 270 4.4
2020-Jan-27 22:36 225 4.4
2020-Jan-27 22:31 292 4.4
2020-Jan-27 22:26 270 4.4
2020-Jan-27 22:20 270 4.4
2020-Jan-27 22:15 4.4
2020-Jan-27 22:10 270 4.4
2020-Jan-27 22:05 292 4.4
2020-Jan-27 22:00 248 0 gusting 4 4.4
2020-Jan-27 21:55 292 5.0
2020-Jan-27 21:49 315 5.0
2020-Jan-27 21:44 315 5.0
2020-Jan-27 21:39 338 0 gusting 2 5.0
2020-Jan-27 21:34 225 5.0
2020-Jan-27 21:29 5.0
2020-Jan-27 21:23 270 5.0
2020-Jan-27 21:18 292 5.0
2020-Jan-27 21:13 315 5.0
2020-Jan-27 21:08 248 5.0
2020-Jan-27 21:02 248 5.0
2020-Jan-27 20:57 270 5.0
2020-Jan-27 20:52 5.6
2020-Jan-27 20:47 315 5.6
2020-Jan-27 20:42 338 5.6
2020-Jan-27 20:37 292 5.6
2020-Jan-27 20:31 292 0 gusting 2 5.6
2020-Jan-27 20:26 292 5.6
2020-Jan-27 20:21 292 5.6
2020-Jan-27 20:16 202 5.6
2020-Jan-27 20:10 6.1
2020-Jan-27 20:05 068 6.1
2020-Jan-27 20:00 225 1 gusting 3 6.1
2020-Jan-27 19:55 292 6.1
2020-Jan-27 19:50 225 1 gusting 5 6.1
2020-Jan-27 19:45 270 5.6
2020-Jan-27 19:39 158 5.6
2020-Jan-27 19:34 248 1 gusting 4 5.6
2020-Jan-27 19:29 248 5.6
2020-Jan-27 19:24 270 0 gusting 2 6.1
2020-Jan-27 19:19 225 0 gusting 2 6.1
2020-Jan-27 19:14 270 5.6
2020-Jan-27 19:09 158 5.6
2020-Jan-27 19:03 315 0 gusting 3 5.0
2020-Jan-27 18:58 180 5.6
2020-Jan-27 18:53 338 5.6
2020-Jan-27 18:48 248 5.6
2020-Jan-27 18:43 270 0 gusting 2 5.6
2020-Jan-27 18:38 270 0 gusting 2 5.6
2020-Jan-27 18:32 225 5.6
2020-Jan-27 18:27 202 5.6
2020-Jan-27 18:22 248 0 gusting 3 5.6
2020-Jan-27 18:17 270 5.0
2020-Jan-27 18:11 202 1 gusting 4 5.6
2020-Jan-27 18:06 248 0 gusting 4 5.6
2020-Jan-27 18:01 270 5.0
2020-Jan-27 17:56 270 5.6
2020-Jan-27 17:51 248 5.6
2020-Jan-27 17:45 158 2 gusting 4 5.6
2020-Jan-27 17:40 202 5.6
2020-Jan-27 17:35 270 1 gusting 3 5.6
2020-Jan-27 17:30 270 1 gusting 4 5.6
2020-Jan-27 17:25 225 2 gusting 4 5.0
2020-Jan-27 17:20 225 0 gusting 3 5.0
2020-Jan-27 17:15 270 1 gusting 4 5.0
2020-Jan-27 17:09 180 0 gusting 4 5.0
2020-Jan-27 17:04 248 1 gusting 4 5.0
2020-Jan-27 16:59 180 1 gusting 4 5.0
2020-Jan-27 16:54 270 1 gusting 3 5.0
2020-Jan-27 16:49 158 0 gusting 5 5.6
2020-Jan-27 16:44 225 5.6
2020-Jan-27 16:39 180 5.6
2020-Jan-27 16:33 315 5.6
2020-Jan-27 16:28 202 5.0
2020-Jan-27 16:23 225 0 gusting 3 5.6
2020-Jan-27 16:18 270 1 gusting 4 5.6
2020-Jan-27 16:13 270 1 gusting 4 5.0
2020-Jan-27 16:08 248 1 gusting 3 5.0
2020-Jan-27 16:02 158 1 gusting 6 5.0
2020-Jan-27 15:57 248 2 gusting 6 5.6
2020-Jan-27 15:52 225 1 gusting 4 5.6
2020-Jan-27 15:47 225 0 gusting 4 6.1
2020-Jan-27 15:42 112 6.1
2020-Jan-27 15:37 270 2 gusting 4 5.6
2020-Jan-27 15:31 270 1 gusting 6 5.6
2020-Jan-27 15:26 180 1 gusting 6 5.6
2020-Jan-27 15:21 225 0 gusting 3 5.6
2020-Jan-27 15:16 270 0 gusting 3 5.6
2020-Jan-27 15:11 225 0 gusting 2 5.0
2020-Jan-27 15:05 270 1 gusting 3 4.4
2020-Jan-27 15:00 202 1 gusting 3 4.4
2020-Jan-27 14:55 202 1 gusting 4 4.4
2020-Jan-27 14:50 248 1 gusting 4 4.4
2020-Jan-27 14:44 248 4.4
2020-Jan-27 14:39 270 0 gusting 2 4.4
2020-Jan-27 14:34 270 4.4
2020-Jan-27 14:29 202 0 gusting 3 4.4
2020-Jan-27 14:23 248 1 gusting 4 4.4
2020-Jan-27 14:18 225 1 gusting 4 3.9
2020-Jan-27 14:13 270 1 gusting 3 3.3
2020-Jan-27 14:08 225 1 gusting 4 3.3
2020-Jan-27 14:03 270 1 gusting 4 3.3
2020-Jan-27 13:58 270 1 gusting 3 3.3
2020-Jan-27 13:53 270 1 gusting 3 3.3
2020-Jan-27 13:48 202 0 gusting 4 3.3
2020-Jan-27 13:42 270 1 gusting 4 3.3
2020-Jan-27 13:37 270 1 gusting 2 3.3
2020-Jan-27 13:32 225 3.3
2020-Jan-27 13:27 248 3.3
2020-Jan-27 13:22 248 2.8
2020-Jan-27 13:16 248 2.8
2020-Jan-27 13:11 202 2.8
2020-Jan-27 13:06 202 2.2
2020-Jan-27 13:01 225 2.2
2020-Jan-27 12:56 225 1.7
2020-Jan-27 12:50 225 1.7
2020-Jan-27 12:45 248 1.7
2020-Jan-27 12:40 202 0 gusting 2 1.7
2020-Jan-27 12:35 180 0 gusting 3 1.7
2020-Jan-27 12:30 202 0 gusting 3 1.7
2020-Jan-27 12:25 202 0 gusting 3 1.7
2020-Jan-27 12:20 225 0 gusting 3 1.7
2020-Jan-27 12:14 180 0 gusting 3 1.7
2020-Jan-27 12:09 248 1.7
2020-Jan-27 12:04 202 1.7
2020-Jan-27 11:59 202 1.7
2020-Jan-27 11:54 202 1.7
2020-Jan-27 11:48 225 1.7
2020-Jan-27 11:43 180 1.7
2020-Jan-27 11:38 225 1.7
2020-Jan-27 11:32 225 1.7
2020-Jan-27 11:27 225 1.7
2020-Jan-27 11:22 202 1.7
2020-Jan-27 11:17 225 0 gusting 2 1.7
2020-Jan-27 11:11 225 0 gusting 2 1.7
2020-Jan-27 11:06 180 1.7
2020-Jan-27 11:01 248 0 gusting 3 1.7
2020-Jan-27 10:56 225 1.7
2020-Jan-27 10:51 180 1.7
2020-Jan-27 10:46 225 1.7
2020-Jan-27 10:41 225 1.7
2020-Jan-27 10:35 225 1.7
2020-Jan-27 10:30 248 1.7
2020-Jan-27 10:25 248 1.1
2020-Jan-27 10:20 248 1.1
2020-Jan-27 10:14 225 1.1
2020-Jan-27 10:09 225 1.1
2020-Jan-27 10:04 225 1.1
2020-Jan-27 09:59 202 1.1
2020-Jan-27 09:54 270 1.1
2020-Jan-27 09:49 270 1.1
2020-Jan-27 09:43 225 1.1
2020-Jan-27 09:38 270 1.1
2020-Jan-27 09:33 225 1.1
2020-Jan-27 09:27 225 1.1
2020-Jan-27 09:22 270 0.6
2020-Jan-27 09:17 225 0.6
2020-Jan-27 09:12 225 0.6
2020-Jan-27 09:07 270 0 gusting 2 0.6
2020-Jan-27 09:01 270 0.6
2020-Jan-27 08:56 202 0.6
2020-Jan-27 08:51 202 0.6
2020-Jan-27 08:45 180 -0.0
2020-Jan-27 08:40 202 -0.0
2020-Jan-27 08:35 270 -0.0
2020-Jan-27 08:30 202 -0.0
2020-Jan-27 08:25 202 -0.0
2020-Jan-27 08:19 202 -0.0
2020-Jan-27 08:13 248 -0.6
2020-Jan-27 08:08 225 -0.6
2020-Jan-27 08:03 202 -1.1
2020-Jan-27 07:58 270 -1.7
2020-Jan-27 07:52 180 -1.7
2020-Jan-27 07:47 158 -1.1
2020-Jan-27 07:42 158 -2.2
2020-Jan-27 07:36 292 -2.2
2020-Jan-27 07:31 045 -2.2
2020-Jan-27 07:26 -2.2
2020-Jan-27 07:21 180 -2.2
2020-Jan-27 07:16 270 -2.8
2020-Jan-27 07:10 135 -2.8
2020-Jan-27 07:05 202 -2.2
2020-Jan-27 06:59 292 -2.2
2020-Jan-27 06:54 315 -2.8
2020-Jan-27 06:49 315 -2.8
2020-Jan-27 06:43 315 -2.2
2020-Jan-27 06:38 338 -2.2
2020-Jan-27 06:33 -2.2
2020-Jan-27 06:27 338 -2.2
2020-Jan-27 06:22 -2.2
2020-Jan-27 06:17 338 -2.2
2020-Jan-27 06:12 135 -1.7
2020-Jan-27 06:06 135 -1.7
2020-Jan-27 06:01 135 -1.7
2020-Jan-27 05:56 202 -1.7
2020-Jan-27 05:51 180 -1.7
2020-Jan-27 05:45 180 -1.7
2020-Jan-27 05:40 180 -1.7
2020-Jan-27 05:35 225 -1.7
2020-Jan-27 05:30 180 -1.7
2020-Jan-27 05:25 202 -1.7
2020-Jan-27 05:19 202 -1.7
2020-Jan-27 05:14 338 -1.7
2020-Jan-27 05:09 180 -1.7
2020-Jan-27 05:04 180 -1.7
2020-Jan-27 04:59 022 -1.7
2020-Jan-27 04:53 292 -1.7
2020-Jan-27 04:48 315 -1.7
2020-Jan-27 04:43 022 -1.7
2020-Jan-27 04:38 135 -1.1
2020-Jan-27 04:33 135 -1.1
2020-Jan-27 04:28 135 -1.1
2020-Jan-27 04:23 135 -1.1
2020-Jan-27 04:18 135 -0.6
2020-Jan-27 04:13 135 -0.6
2020-Jan-27 04:07 135 -0.0
2020-Jan-27 04:02 135 -0.0
2020-Jan-27 03:57 135 -0.0
2020-Jan-27 03:51 135 -0.0
2020-Jan-27 03:46 135 -0.0
2020-Jan-27 03:41 135 0.6
2020-Jan-27 03:35 135 0.6
2020-Jan-27 03:30 135 0.6
2020-Jan-27 03:25 292 0.6
2020-Jan-27 03:20 315 0.6
2020-Jan-27 03:15 180 1.1
2020-Jan-27 03:10 202 1.7
2020-Jan-27 03:05 270 1.7
2020-Jan-27 03:00 248 1.7
2020-Jan-27 02:54 202 2.2
2020-Jan-27 02:49 225 2.2
2020-Jan-27 02:44 180 2.2
2020-Jan-27 02:38 292 2.8
2020-Jan-27 02:33 270 2.8
2020-Jan-27 02:28 225 2.8
2020-Jan-27 02:23 292 3.3
2020-Jan-27 02:18 225 3.3
2020-Jan-27 02:12 270 3.3
2020-Jan-27 02:07 270 3.9
2020-Jan-27 02:02 225 3.9
2020-Jan-27 01:57 225 3.9
2020-Jan-27 01:52 270 3.9
2020-Jan-27 01:47 248 3.9
2020-Jan-27 01:42 270 4.4
2020-Jan-27 01:36 225 1 gusting 4 4.4
2020-Jan-27 01:31 090 1 gusting 4 4.4
2020-Jan-27 01:26 202 3.9
2020-Jan-27 01:21 292 3.9
2020-Jan-27 01:16 202 4.4
2020-Jan-27 01:10 315 4.4
2020-Jan-27 01:05 202 0 gusting 2 4.4
2020-Jan-27 01:00 292 4.4
2020-Jan-27 00:55 225 4.4
2020-Jan-27 00:50 225 4.4
2020-Jan-27 00:45 270 4.4
2020-Jan-27 00:40 315 0 gusting 3 4.4
2020-Jan-27 00:34 202 4.4
2020-Jan-27 00:29 315 4.4
2020-Jan-27 00:24 225 4.4
2020-Jan-27 00:19 225 4.4
2020-Jan-27 00:14 270 4.4
2020-Jan-27 00:08 248 4.4
2020-Jan-27 00:03 270 4.4